Location: Albany
(35.0000°S, 118.0000°E)
Time: 22:13:12
(UTC-05:00)

ISS - All Passes

Search period start: 20 February 2018 00:00
Search period end: 02 March 2018 00:00
Orbit: 402 x 407 km, 51.6° (Epoch: 21 February)

Date Brightness Start Highest point End Pass type
(mag) Time Alt. Az. Time Alt. Az. Time Alt. Az.
20 Feb - 06:12:33 10° NNE 06:14:29 15° NE 06:16:27 10° E daylight
20 Feb - 07:47:31 10° WNW 07:50:41 42° SW 07:53:54 10° SE visible
20 Feb - 14:17:52 10° SW 14:21:07 46° SE 14:24:20 10° ENE visible
20 Feb - 15:55:32 10° W 15:57:17 14° NW 15:59:02 10° NNW visible
21 Feb - 06:55:07 10° NW 06:58:26 89° WSW 07:01:47 10° SE visible
21 Feb - 08:33:45 10° SW 08:35:21 13° SSW 08:36:57 10° S visible
21 Feb - 13:25:56 10° SSW 13:28:46 25° SSE 13:31:36 10° E night (unlit)
21 Feb - 15:02:19 10° WSW 15:05:15 28° NW 15:08:07 10° NNE night (unlit)
22 Feb - 06:03:08 10° NNW 06:06:15 40° NE 06:09:25 10° ESE daylight
22 Feb - 07:40:20 10° W 07:42:52 20° SSW 07:45:24 10° SSE visible
22 Feb - 12:34:12 10° S 12:36:20 16° SSE 12:38:27 10° ESE night (unlit)
22 Feb - 14:09:47 10° SW 14:13:06 62° NW 14:16:23 10° NE night (unlit)
23 Feb - 05:11:44 10° N 05:14:10 19° NE 05:16:36 10° E daylight
23 Feb - 06:47:24 10° WNW 06:50:28 33° SW 06:53:32 10° SSE visible
23 Feb - 11:43:10 10° SSE 11:43:47 10° SSE 11:44:24 10° SE night (unlit)
23 Feb - 13:17:32 10° SW 13:20:51 60° SE 13:24:08 10° ENE night (unlit)
23 Feb - 14:56:20 10° WNW 14:56:55 10° NW 14:57:31 10° NW night (unlit)
24 Feb - 05:54:50 10° NW 05:58:08 68° SW 06:01:28 10° SE daylight
24 Feb - 07:34:08 10° SW 07:35:09 11° SSW 07:36:11 10° S visible
24 Feb - 12:25:30 10° SSW 12:28:31 30° SE 12:31:30 10° E night (unlit)
24 Feb - 14:02:14 10° WSW 14:04:52 22° NW 14:07:28 10° N night (unlit)
25 Feb - 05:02:40 10° NNW 05:05:53 53° NE 05:09:09 10° ESE daylight
25 Feb - 06:40:21 10° WSW 06:42:35 17° SSW 06:44:52 10° SSE visible
25 Feb - 11:33:39 10° SSW 11:36:04 18° SSE 11:38:28 10° ESE night (unlit)
25 Feb - 13:09:30 10° WSW 13:12:43 46° NW 13:15:55 10° NNE night (unlit)
26 Feb - 04:10:59 10° N 04:13:43 24° NE 04:16:29 10° ESE daylight
26 Feb - 05:47:13 10° W 05:50:07 27° SW 05:53:03 10° SSE daylight
26 Feb - 10:42:09 10° S 10:43:31 12° SSE 10:44:52 10° SE night (unlit)
26 Feb - 12:17:07 10° SW 12:20:28 79° SE 12:23:47 10° NE night (unlit)
27 Feb - 03:20:18 10° NNE 03:21:37 12° NE 03:22:55 10° ENE daylight
27 Feb - 04:54:29 10° WNW 04:57:43 52° SW 05:01:00 10° SE daylight
27 Feb - 11:24:58 10° SSW 11:28:07 37° SE 11:31:15 10° ENE night (unlit)
27 Feb - 13:02:08 10° W 13:04:22 17° NW 13:06:35 10° N night (unlit)
28 Feb - 04:02:07 10° NW 04:05:24 72° NE 04:08:44 10° SE daylight
28 Feb - 05:40:18 10° WSW 05:42:13 14° SSW 05:44:09 10° S daylight
28 Feb - 10:33:00 10° SSW 10:35:40 21° SSE 10:38:19 10° E night (unlit)
28 Feb - 12:09:08 10° WSW 12:12:12 35° NW 12:15:15 10° NNE night (unlit)
01 Mar - 03:10:12 10° NNW 03:13:10 32° NE 03:16:11 10° ESE daylight
01 Mar - 04:46:58 10° W 04:49:40 23° SSW 04:52:24 10° SSE daylight
01 Mar - 09:41:18 10° S 09:43:06 14° SSE 09:44:54 10° ESE night (unlit)
01 Mar - 11:16:37 10° SW 11:19:58 79° NW 11:23:16 10° NE night (unlit)
